Other Public Products
Issued by NWS Grand Forks, ND

Home | Current Version | Previous Version | Text Only | Print | Product List | Glossary Off
Versions: 1 2 3 4 5 6 7 8 9 10 11 12 13 14 15 16 17 18 19 20 21 22 23 24 25 26 27 28 29 30 31 32 33 34 35 36 37 38 39 40 41 42 43 44 45 46 47 48 49 50

000
FPUS83 KFGF 212010
OPUFGF
PRAIRIE TO PINES WEATHER ROUNDUP
NATIONAL WEATHER SERVICE EASTERN NORTH DAKOTA/GRAND FORKS ND
200 PM CST FRI NOV 21 2014

 **SATELLITE DATA USED TO AUGMENT SKY COVER AT AUTOMATED STATIONS**
 *****  WEATHER ACROSS EASTERN NORTH DAKOTA  *****

CITY           SKY/WX    TMP DP  RH WIND       PRES   REMARKS
GRAND FORKS    PTSUNNY   35  22  58 S21G28    29.67F WCI  24
GRAND FORKS AF MOSUNNY   35  22  58 S21       29.66F HAZE    WCI  24
GRAND CITY NWS   N/A     32 N/A N/A SW23        N/A  WCI  19
BUXTON         NOT AVBL
DEVILS LAKE    SUNNY     39  25  56 SW14      29.58F
FARGO          MOSUNNY   33  22  63 S17       29.76F WCI  22
WAHPETON ARPT  PTCLDY    28  23  80 S14       29.82F WCI  17
$$

 *****  WEATHER ACROSS CENTRAL AND WESTERN NORTH DAKOTA  *****

CITY           SKY/WX    TMP DP  RH WIND       PRES   REMARKS
JAMESTOWN      PTSUNNY   37  25  61 SW13      29.68F
BISMARCK       SUNNY     44  29  55 SW13      29.70F
MINOT          SUNNY     50  26  39 SW17G35   29.55F
MINOT AFB      SUNNY     50  29  44 W23G30    29.54F
GARRISON         N/A     47  29  49 W18       29.62F
WILLISTON      SUNNY     45  29  53 W22G32    29.63S
DICKINSON      SUNNY     42  28  57 W18       29.68F
HETTINGER      MOSUNNY   42  28  57 W15       29.75F
$$

 *****  OTHER OBSERVATIONS NORTHEAST NORTH DAKOTA  *****

CITY           SKY/WX    TMP DP  RH WIND       PRES   REMARKS
WALHALLA         N/A     41  27  56 SW18G25   29.54F
LANGDON        FAIR      39  28  65 SW16      29.53F
CAVALIER       FAIR      37  25  60 S14G21    29.58F
GRAFTON        FAIR      36  23  60 S22       29.62F
CANDO          FAIR      46  28  49 SW18G26   29.56F
FORT TOTTEN      N/A     42  28  58 SW9       29.95S
ROLLA          FAIR      45  28  53 SW22G28   29.49F
RUGBY          FAIR      48  32  53 SW18      29.55F
 ***** THE ABOVE OBSERVATIONS ARE NON NWS ARE NOT QUALITY
        CONTROLLED AND MAY MIS-REPORT RAIN FOR SNOW...
$$

 *****  OTHER OBSERVATIONS SOUTHEAST NORTH DAKOTA *****

CITY           SKY/WX    TMP DP  RH WIND       PRES   REMARKS
COOPERSTOWN    NOT AVBL
VALLEY CITY    FAIR      30  25  80 S17G23    29.70F WCI  18
OAKES            N/A     28  25  86 S20G26    29.76F WCI  15
GWINNER        CLEAR     32  27  80 SW20      29.76F WCI  20
BUFFALO        NOT AVBL
WYNDMERE         N/A     34  27  75 SW9         N/A
 ***** THE ABOVE OBSERVATIONS ARE NON NWS ARE NOT QUALITY
       CONTROLLED AND MAY MIS-REPORT RAIN FOR SNOW...
$$

  *****  WEATHER ACROSS NORTHERN MINNESOTA  *****

CITY           SKY/WX    TMP DP  RH WIND       PRES   REMARKS
FLAG ISLAND    CLOUDY    27  19  74 S17       29.62F WCI  14
WARROAD        CLOUDY    28  21  74 S13G24    29.65F WCI  18
ROSEAU         PTSUNNY   30  21  69 SW16G25   29.65F WCI  19
HALLOCK          N/A     30  25  80 S22G28    29.62F WCI  17
THF RVR FALLS  MOSUNNY   28  21  74 S23       29.70F WCI  14
HALSTAD          N/A     32  21  65 S20         N/A  WCI  20
FOSSTON        MOSUNNY   28  21  74 S21G29    29.74F WCI  15
BAUDETTE       CLOUDY    28  18  66 S14G22    29.66F WCI  17
WASKISH        PTSUNNY   30  19  64 S7        29.72F WCI  23
CROOKSTON      MOSUNNY   30  25  80 S26       29.72F WCI  16
$$
  *****  WEATHER ACROSS CENTRAL AND WEST MINNESOTA  *****

CITY           SKY/WX    TMP DP  RH WIND       PRES   REMARKS
BEMIDJI        MOSUNNY   29  19  65 S16G22    29.75F WCI  18
PARK RAPIDS    MOSUNNY   27  19  72 S18G26    29.80F WCI  14
WADENA         MOSUNNY   27  19  74 S18       29.84F WCI  13
DETROIT LAKES  SUNNY     30  23  74 S15       29.79F WCI  19
MOORHEAD       MOSUNNY   32  25  74 S20       29.79F WCI  20
FERGUS FALLS   MOSUNNY   27  19  74 S15       29.86F WCI  15
ELBOW LAKE       N/A     28  22  79 S20       29.84F WCI  15
MORRIS MN      CLOUDY    28  23  80 S14       29.85F WCI  17
STAPLES        MOSUNNY   27  19  74 S18G24    29.87F WCI  13
WHEATON        PTSUNNY   30  23  74 S13       29.85F WCI  20
$$
  *****  WEATHER ELSEWHERE ACROSS MINNESOTA  *****

CITY           SKY/WX    TMP DP  RH WIND       PRES   REMARKS
DULUTH         SUNNY     28  15  58 S17G29    29.89F WCI  16
INTRNTL FALLS  MOSUNNY   30  16  56 S13G24    29.71F WCI  20
ELY            SUNNY     28  18  64 S13G25    29.79F WCI  18
CLOQUET        SUNNY     27  16  63 S20G28    29.90F WCI  13
BRAINERD       SUNNY     26  18  71 S18G26    29.89F WCI  13
HIBBING        SUNNY     30  16  56 SW14G26   29.82F WCI  19
ALEXANDRIA     PTSUNNY   27  20  75 S17G26    29.86F WCI  14
SAINT CLOUD    PTSUNNY   28  18  66 S18       29.96F WCI  15
MINNEAPOLIS    PTSUNNY   27  16  63 S20G26    30.06F WCI  13
$$

  *****  WEATHER ACROSS SOUTH DAKOTA  *****

CITY           SKY/WX    TMP DP  RH WIND       PRES   REMARKS
SIOUX FALLS    PTSUNNY   34  25  69 S17G25    29.93F WCI  23
BROOKINGS      NOT AVBL
WATERTOWN      PTSUNNY   32  25  75 S17G26    29.83F WCI  21
HURON          PTSUNNY   37  28  70 S13       29.85F
SISSETON         N/A     33  24  69 SW20      29.79F WCI  21
ABERDEEN       MOSUNNY   31  24  75 S16       29.81F WCI  20
MITCHELL       PTSUNNY   40  30  67 S12       29.87F
PIERRE         PTSUNNY   32  23  69 SW6       29.81F
MOBRIDGE       CLOUDY    38  28  67 SE6       29.74F
RAPID CITY     PTSUNNY   49  29  46 SE3       29.81F
$$

  *****  SOME WEATHER IN NEARBY STATES *****

CITY           SKY/WX    TMP DP  RH WIND       PRES   REMARKS
GLASGOW MT     SUNNY     42  30  62 W9        29.68S
GREAT FALLS MT SUNNY     49  28  44 SW28G35   29.74F
CHEYENNE WY    SUNNY     51  16  24 W16G28    29.92F
SCOTTSBLUFF NE PTSUNNY   56  21  25 W21G28    29.87F
OMAHA NE       PTSUNNY   39  25  57 S12       30.09F
DES MOINES IA  CLOUDY    38  21  50 S14       30.16F
DAVENPORT IA   SUNNY     35   4  27 S14       30.29F
CHICAGO IL     MOSUNNY   32   1  26 S10       30.34F WCI  24
EAU CLAIRE WI  MOSUNNY   23   8  52 S13       30.13F WCI  11
LA CROSSE WI   MOSUNNY   29  10  45 S13       30.20F WCI  19
$$

  *****  SOME NATIONAL WEATHER *****

CITY           SKY/WX    TMP DP  RH WIND       PRES   REMARKS
LA GUARDIA NY  MOSUNNY   36  11  35 NW24G30   30.32R
RALEIGH NC     SUNNY     46   8  21 VRB3      30.44R
ATLANTA GA     SUNNY     63  35  35 NW10      30.35F
NEW ORLEANS LA MOSUNNY   68  51  54 E14       30.24F
OKLAHOMA CITY  PTSUNNY   66  53  63 S17G24    30.00F
ALBUQUERQUE NM CLOUDY    50  14  23 CALM      30.03F
SALT LAKE CITY SUNNY     47  24  40 NW8       30.02F
LOS ANGELES CA MOSUNNY   68  46  45 W13       29.96F
BOISE ID       CLOUDY    34  27  75 SW7       30.03F HAZE
SEATTLE WA     LGT RAIN  52  47  83 S10       29.63F
$$

*** WEATHER ACROSS MANITOBA...SASKATCHEWAN AND ONTARIO ***
                ***ONTARIO***

CITY           SKY/WX    TMP DP  RH WIND       PRES   REMARKS
GERALDTON      CLOUDY    23  18  80 S15G21    29.80F WCI  10
THUNDER BAY    CLOUDY    27  18  69 SW10G22   29.88F WCI  17
SIOUX LOOKOUT  CLOUDY    23  14  68 S15G24    29.62F WCI  10
TORONTO        PTSUNNY   27  14  59 W16       30.38R WCI  14
BIG TROUT LK   LGT SNOW  12   9  85 S10       29.51F WCI  -1
PICKLE LAKE    LGT SNOW  18  10  73 SW12G24   29.56F DRFTSNOWWCI   5
DRYDEN         MOSUNNY   25  18  74 SW15G23   29.62F WCI  12
KENORA         NOT AVBL
$$
                *** MANITOBA***

CITY           SKY/WX    TMP DP  RH WIND       PRES   REMARKS
BRANDON        MOSUNNY   45  28  53 W21G29    29.45F
DAUPHIN        NOT AVBL
ISLAND LAKE    LGT SNOW  18  14  86 S5        29.40F VSB 1   WCI  11
PILOT MOUND      N/A     43  30  61 SW20G25     N/A
THE PAS        CLOUDY    27  25  93 NW9       29.38R WCI  17
THOMPSON       FLURRIES  14  10  85 N2        29.36S
WINNIPEG       PTSUNNY   25  19  80 S25       29.52F WCI   9
LYNN LAKE      FLURRIES  14  12  92 N8        29.38R WCI   3
CHURCHILL      LGT SNOW   0  -4  85 W3        29.57F
GILLAM         LGT SNOW   7   3  85 E3        29.42F
$$
                ***SASKATCHEWAN***

CITY           SKY/WX    TMP DP  RH WIND       PRES   REMARKS
ESTEVAN        PTSUNNY   46  32  57 W21G29    29.54R
KINDERSLEY     PTSUNNY   41  34  75 W8        29.54S
LLOYDMINSTER   LGT RAIN  37  36  93 NW9       29.50R
PRINCE ALBERT  LGT SNOW  34  30  86 NW7       29.47R FOG
REGINA         PTSUNNY   43  34  70 W22       29.52R
YORKTON        CLOUDY    39  28  65 W9        29.41R



USA.gov is the U.S. government's official web portal to all federal, state and local government web resources and services.